Temp
68 67 62 69 70 75 71 65 66 70 77 72 69 69 72 75 77 75 75 76 77 79 83 81 83 83 80 80 79 76 76 75 74 72 72 73 73 73 73 73 75 76 75 76
64 60 71 75 75 72 69 65 66 72 77 73 70 70 73 74 76 78 77 77 78 79 76 79 81 81 80 78 79 76 77 74 75 74 73 75 74 73 74 74 73 75 75 76
60 68 76 73 71 70 62 63 66 68 71 73 69 66 67 72 74 77 79 81 80 79 75 76 80 81 80 78 77 78 76 76 75 75 74 73 75 73 73 72 72 74 76 76
64 72 75 67 69 70 60 72 75 74 65 59 69 55 64 67 69 72 77 78 79 79 77 77 79 80 80 80 80 79 77 76 76 75 74 73 72 71 71 72 72 74 75 76
67 70 68 66 73 74 69 75 73 74 59 58 62 56 62 62 66 69 75 78 80 80 80 77 77 81 82 81 81 79 77 77 77 76 76 74 72 73 70 69 71 71 73 75
69 73 74 74 77 75 75 68 65 60 58 51 59 59 59 60 68 74 75 77 80 81 81 82 79 80 80 77 79 79 76 75 76 76 74 73 73 72 68 67 67 69 72 73
65 67 71 74 65 70 66 59 49 49 49 50 51 56 62 69 72 75 78 78 79 82 81 81 79 78 78 78 77 74 73 73 75 75 75 74 73 72 70 69 68 69 71 72
56 57 68 73 72 68 62 61 51 47 45 53 50 55 65 73 77 78 81 79 80 79 82 82 82 80 81 79 76 76 73 73 75 76 76 74 74 73 72 72 70 71 72 73
52 57 69 73 75 74 61 58 60 52 45 50 54 61 70 71 72 74 76 78 77 79 83 83 84 83 81 80 80 78 73 73 75 77 76 73 73 73 73 72 72 72 72 75
59 56 65 70 71 69 67 68 58 52 47 44 53 53 58 63 68 70 71 73 73 78 83 83 85 84 83 83 83 79 74 73 77 79 78 77 75 74 74 73 71 70 71 74
59 58 63 66 61 65 63 58 54 55 51 48 47 54 59 60 65 67 70 70 70 73 77 81 82 86 82 83 83 76 74 73 71 77 78 77 75 75 74 75 74 73 72 73
64 57 54 62 67 69 64 61 58 54 52 50 52 55 64 62 70 70 66 69 70 75 75 77 78 80 80 81 78 76 74 73 74 74 77 77 76 75 75 77 75 75 74 73
67 55 52 60 61 64 63 61 54 54 52 49 52 55 67 64 69 70 67 70 69 72 73 74 76 76 77 75 75 80 79 75 76 77 79 77 76 75 76 77 76 75 74 74
70 53 57 55 61 60 60 66 60 59 53 52 54 57 62 64 67 70 69 72 71 73 74 73 72 73 75 75 73 75 76 78 78 78 77 77 76 77 78 76 74 74 75 73
69 60 56 59 62 68 65 64 67 62 61 60 61 57 61 64 68 71 70 75 74 74 77 75 74 74 73 74 73 73 74 75 75 76 76 77 78 78 76 75 74 74 74 75
62 59 56 60 69 70 67 68 65 66 66 63 60 57 64 64 65 69 71 74 74 75 77 76 76 77 77 76 74 75 74 73 74 74 75 77 75 75 75 75 75 75 73 73
63 59 56 53 63 64 60 65 63 63 64 63 60 63 62 61 66 69 69 72 73 76 76 75 76 75 74 75 76 74 74 74 73 73 73 74 74 74 74 75 74 74 73 73
60 57 55 53 53 50 62 66 70 65 68 66 64 66 63 65 66 69 71 69 74 77 76 75 74 74 74 75 77 75 75 75 74 74 73 74 73 72 74 74 74 74 73 74
61 57 52 56 51 57 66 69 66 65 65 69 65 66 66 68 67 68 73 73 73 73 75 75 75 75 75 76 76 75 75 74 74 74 74 74 74 73 73 73 73 73 73 73
60 57 59 51 52 50 62 72 76 71 61 70 68 65 66 68 64 64 74 76 76 76 76 75 76 76 76 75 75 74 73 73 73 73 74 74 73 73 73 73 73 71 72 73
53 53 53 50 51 57 67 71 73 61 62 73 70 68 66 63 66 71 75 75 77 76 77 76 76 76 75 73 74 73 73 73 74 74 74 73 72 71 72 72 72 71 71 71
55 53 52 50 51 51 69 71 66 69 66 71 70 69 68 66 71 73 75 76 76 76 74 75 74 74 73 73 73 71 72 74 73 72 72 72 72 71 71 70 70 70 70 70
55 57 56 56 57 63 66 65 69 69 68 70 70 72 73 72 71 72 73 74 75 75 74 74 73 72 71 73 73 73 73 71 70 69 69 69 71 71 71 69 68 69 69 71
58 59 58 58 63 64 69 71 71 72 73 73 72 74 73 72 72 72 73 73 73 73 74 72 71 71 71 71 73 72 72 71 69 68 67 68 69 69 69 69 68 68 71 71
61 61 58 58 62 69 71 71 70 74 75 76 77 76 74 73 74 72 71 71 72 71 70 71 71 70 71 70 69 71 71 68 68 67 67 68 68 69 69 68 67 68 71 69
60 62 61 60 64 66 65 68 72 73 74 75 75 74 75 75 74 72 72 70 68 69 69 69 68 68 69 69 69 70 69 67 67 66 66 68 68 68 67 66 65 56 55 55
MSLP
1005.82 1006.60 1007.22 1007.68 1007.81 1007.39 1007.81 1007.96 1007.77 1007.67 1007.41 1007.73 1008.23 1008.41 1008.53 1008.49 1008.98 1009.37 1009.57 1009.78 1009.85 1009.92 1009.83 1010.43 1011.00 1011.60 1012.43 1013.05 1013.37 1013.80 1014.21 1014.54 1015.17 1015.56 1015.88 1016.15 1016.37 1016.03 1016.09 1016.05 1015.92 1016.13 1016.51 1016.56
1006.66 1006.64 1006.28 1006.91 1007.19 1007.23 1007.33 1007.73 1007.36 1007.12 1007.06 1007.36 1007.83 1007.90 1007.81 1007.89 1007.75 1008.29 1008.76 1009.28 1009.33 1009.56 1010.01 1010.35 1010.77 1011.27 1011.79 1012.41 1013.02 1013.59 1013.84 1014.25 1014.60 1014.87 1015.11 1015.44 1015.87 1016.13 1016.09 1016.05 1016.23 1016.34 1016.29 1016.53
1006.70 1006.20 1005.98 1006.42 1006.97 1007.35 1007.51 1007.66 1007.44 1007.42 1007.35 1007.39 1007.65 1007.89 1007.87 1007.76 1007.75 1007.85 1008.04 1008.42 1008.80 1009.16 1009.61 1010.07 1010.53 1010.95 1011.57 1012.21 1012.65 1013.03 1013.37 1013.77 1014.21 1014.51 1015.01 1015.48 1015.79 1016.13 1016.33 1016.52 1016.56 1016.54 1016.27 1016.49
1006.43 1005.63 1005.75 1006.09 1006.40 1006.81 1007.32 1006.97 1007.14 1007.30 1008.21 1008.34 1008.15 1009.36 1008.08 1007.50 1007.43 1007.35 1007.21 1007.59 1008.06 1008.71 1009.00 1009.53 1010.13 1010.77 1011.21 1011.46 1012.06 1012.50 1013.04 1013.44 1013.81 1014.37 1014.77 1015.16 1015.48 1015.96 1016.13 1016.17 1016.16 1016.39 1016.41 1016.55
1005.65 1005.41 1005.49 1005.67 1005.29 1006.03 1006.14 1006.56 1007.01 1007.29 1009.21 1009.31 1009.51 1009.88 1007.81 1007.63 1007.21 1007.10 1006.62 1006.75 1007.11 1007.55 1008.20 1008.79 1009.44 1009.78 1010.31 1011.12 1011.63 1011.97 1012.60 1013.13 1013.53 1013.98 1014.39 1014.87 1015.32 1015.53 1015.96 1016.38 1016.47 1016.66 1016.64 1016.52
1005.31 1004.79 1004.89 1004.47 1004.43 1005.25 1005.52 1006.76 1007.80 1008.88 1009.82 1010.81 1009.81 1009.93 1008.48 1007.51 1005.89 1005.47 1005.98 1005.75 1006.43 1006.90 1007.62 1008.04 1008.95 1009.42 1010.24 1011.13 1011.44 1011.97 1012.37 1012.71 1013.16 1013.73 1014.18 1014.51 1014.95 1015.50 1016.07 1016.61 1016.78 1016.78 1016.70 1016.66
1005.51 1004.89 1004.18 1003.81 1004.35 1004.80 1006.13 1007.70 1009.59 1010.78 1011.19 1010.72 1009.91 1009.94 1007.66 1005.70 1005.01 1004.56 1004.64 1004.79 1005.60 1006.19 1006.96 1007.53 1008.48 1009.36 1009.83 1010.59 1010.89 1011.85 1012.54 1012.61 1012.90 1013.39 1013.91 1014.23 1014.59 1015.04 1015.67 1016.17 1016.44 1016.62 1016.68 1016.63
1006.11 1005.20 1004.19 1003.80 1004.05 1004.69 1005.95 1007.15 1008.67 1010.33 1011.44 1010.67 1009.93 1008.74 1006.29 1005.18 1004.42 1004.10 1004.19 1004.37 1005.21 1005.65 1006.09 1006.70 1007.49 1008.55 1009.29 1010.30 1010.82 1011.05 1012.06 1012.65 1012.67 1013.06 1013.50 1013.90 1014.27 1014.63 1015.10 1015.49 1015.73 1015.88 1016.01 1016.08
1006.11 1005.26 1004.09 1003.56 1003.42 1004.15 1005.70 1006.79 1007.51 1009.43 1011.01 1010.96 1009.65 1007.97 1006.39 1005.70 1005.18 1004.75 1004.59 1004.56 1005.08 1005.04 1005.42 1005.98 1006.75 1007.55 1008.45 1009.37 1009.86 1010.29 1011.17 1011.99 1012.41 1012.63 1013.19 1013.62 1013.99 1014.31 1014.57 1014.80 1015.07 1015.35 1015.62 1015.89
1005.39 1005.29 1004.16 1003.40 1003.24 1003.91 1004.49 1005.75 1007.64 1009.08 1010.71 1011.08 1009.86 1008.94 1008.02 1007.09 1006.70 1005.98 1005.67 1005.47 1005.47 1005.38 1005.30 1005.67 1006.18 1006.77 1007.51 1008.19 1008.96 1010.16 1010.71 1011.04 1011.39 1012.13 1012.67 1013.17 1013.41 1013.72 1013.98 1014.39 1014.88 1015.18 1015.39 1015.75
1005.11 1005.50 1004.73 1003.89 1003.94 1003.88 1004.89 1005.78 1007.54 1008.79 1009.92 1010.59 1010.27 1009.31 1008.45 1008.31 1008.01 1007.99 1006.67 1006.27 1005.34 1005.19 1005.63 1005.93 1006.26 1006.37 1007.05 1008.04 1008.86 1009.61 1010.27 1010.79 1011.32 1011.65 1012.07 1012.61 1012.94 1013.17 1013.55 1013.85 1014.16 1014.55 1015.01 1015.39
1004.53 1005.47 1005.73 1004.55 1003.74 1003.63 1003.98 1005.04 1006.54 1008.80 1009.99 1010.28 1009.97 1008.97 1008.46 1008.37 1007.61 1007.35 1008.21 1007.52 1005.89 1005.35 1005.14 1005.87 1006.15 1006.45 1006.88 1007.62 1008.45 1009.27 1010.03 1010.44 1010.84 1011.21 1011.79 1011.87 1012.22 1012.62 1013.06 1013.27 1013.56 1013.92 1014.33 1014.77
1003.92 1005.17 1005.85 1004.82 1003.93 1003.47 1003.58 1004.64 1005.85 1007.06 1008.29 1009.57 1009.87 1008.86 1008.31 1008.24 1007.49 1007.67 1009.93 1006.88 1006.76 1006.29 1005.98 1005.83 1006.24 1006.50 1006.83 1007.39 1008.07 1008.68 1009.55 1010.17 1010.45 1010.83 1011.24 1011.51 1011.72 1012.02 1012.34 1012.77 1013.09 1013.40 1013.80 1014.21
1002.69 1004.95 1005.14 1005.08 1004.29 1003.98 1003.59 1004.21 1005.21 1006.11 1007.83 1008.97 1008.76 1008.27 1008.41 1008.53 1008.42 1008.15 1007.16 1006.58 1006.28 1006.29 1006.44 1006.54 1006.82 1006.73 1006.79 1007.27 1007.98 1008.43 1008.93 1009.58 1010.11 1010.35 1010.59 1010.84 1010.97 1011.18 1011.65 1012.30 1012.75 1013.06 1013.36 1013.81
1002.49 1004.33 1004.59 1004.28 1004.33 1003.96 1003.89 1004.05 1004.78 1005.57 1006.07 1006.97 1007.17 1007.83 1007.50 1007.67 1007.37 1006.92 1006.29 1006.00 1006.21 1006.58 1006.81 1007.07 1007.25 1007.25 1007.37 1007.56 1007.99 1008.34 1008.56 1008.91 1009.20 1009.57 1009.88 1010.04 1010.19 1010.68 1011.29 1011.81 1012.12 1012.53 1012.89 1013.11
1002.94 1004.18 1004.61 1004.87 1004.13 1003.87 1004.09 1004.07 1004.23 1004.68 1005.51 1006.20 1006.96 1007.54 1007.21 1007.44 1007.26 1006.71 1006.29 1006.05 1006.76 1006.81 1007.31 1007.37 1007.37 1007.42 1007.65 1007.89 1008.22 1008.55 1008.86 1009.06 1009.28 1009.50 1009.72 1010.00 1010.29 1010.54 1010.90 1011.27 1011.63 1012.07 1012.44 1012.84
1003.25 1004.32 1005.53 1005.70 1004.60 1003.92 1004.09 1004.20 1004.40 1004.87 1005.39 1005.75 1006.93 1006.57 1007.23 1008.11 1007.86 1007.50 1007.04 1006.90 1006.88 1006.97 1007.34 1007.55 1007.80 1007.77 1007.98 1008.09 1008.24 1008.71 1008.84 1009.04 1009.28 1009.57 1009.84 1010.02 1010.25 1010.52 1010.81 1011.01 1011.43 1011.85 1012.27 1012.44
1003.56 1004.84 1005.53 1006.17 1005.51 1005.35 1004.77 1004.17 1004.36 1004.78 1005.44 1006.03 1006.41 1006.96 1008.29 1008.36 1008.21 1007.91 1007.51 1007.25 1006.90 1006.77 1007.57 1007.88 1007.92 1008.16 1008.41 1008.36 1008.35 1008.61 1009.01 1009.33 1009.52 1009.67 1009.86 1009.97 1010.18 1010.33 1010.53 1010.67 1010.97 1011.27 1011.44 1011.60
1003.25 1004.63 1006.44 1006.77 1006.48 1006.03 1004.81 1004.31 1004.27 1004.15 1005.51 1005.66 1006.50 1007.32 1008.39 1008.89 1008.61 1008.06 1007.75 1007.73 1007.21 1007.01 1007.26 1007.13 1007.49 1008.13 1008.37 1008.48 1008.75 1009.19 1009.37 1009.50 1009.66 1009.79 1009.88 1009.82 1009.86 1010.03 1010.20 1010.35 1010.41 1010.48 1010.74 1010.85
1003.93 1004.76 1005.89 1007.09 1006.99 1006.33 1005.13 1004.23 1004.11 1004.35 1005.29 1005.63 1006.10 1007.13 1008.18 1008.69 1008.67 1007.99 1007.33 1006.96 1007.05 1007.04 1007.20 1007.44 1007.89 1008.16 1008.24 1008.51 1008.92 1009.40 1009.63 1009.78 1009.97 1009.97 1009.83 1009.73 1009.79 1009.94 1009.93 1009.91 1009.99 1010.11 1010.22 1010.32
1005.81 1006.49 1007.16 1007.55 1007.17 1006.06 1004.68 1004.37 1004.23 1004.85 1005.74 1005.40 1006.12 1006.67 1007.81 1008.23 1007.66 1007.03 1006.56 1006.93 1007.07 1007.32 1007.38 1007.75 1008.07 1008.11 1008.43 1008.69 1008.75 1009.23 1009.59 1010.02 1010.01 1009.96 1009.76 1009.55 1009.51 1009.63 1009.61 1009.74 1009.73 1009.80 1009.92 1010.04
1006.54 1007.13 1008.01 1008.00 1007.18 1006.40 1005.14 1004.75 1004.74 1004.31 1004.87 1004.87 1006.00 1006.59 1006.72 1007.20 1007.18 1006.85 1006.75 1007.00 1007.21 1007.67 1008.14 1008.11 1008.21 1008.47 1008.55 1008.50 1008.87 1009.31 1009.53 1009.70 1009.85 1009.77 1009.81 1009.65 1009.32 1009.10 1009.11 1009.28 1009.13 1009.21 1009.43 1009.54
1006.88 1006.84 1007.02 1007.51 1006.91 1005.87 1005.05 1004.58 1004.22 1004.22 1004.59 1004.83 1005.17 1005.53 1006.04 1006.89 1007.15 1006.95 1007.15 1007.01 1007.38 1007.70 1007.80 1007.96 1008.07 1008.38 1008.47 1008.54 1008.77 1009.15 1009.17 1009.51 1009.77 1009.67 1009.61 1009.47 1009.19 1008.95 1008.88 1009.05 1009.00 1009.07 1009.12 1009.26
1006.52 1006.62 1006.92 1007.17 1007.02 1006.33 1005.53 1004.86 1004.51 1004.45 1004.63 1004.79 1005.71 1005.76 1006.12 1006.55 1007.03 1007.23 1007.43 1007.56 1007.78 1007.61 1007.70 1007.93 1008.35 1008.44 1008.53 1008.52 1008.63 1008.94 1009.15 1009.21 1009.35 1009.30 1009.29 1009.21 1009.15 1009.03 1008.97 1008.77 1008.81 1008.86 1008.77 1008.74
1006.51 1006.35 1007.03 1007.21 1006.91 1006.48 1006.35 1005.85 1005.66 1005.27 1005.12 1005.33 1005.52 1005.63 1005.77 1006.25 1006.55 1006.69 1007.01 1007.35 1007.59 1007.83 1008.05 1008.26 1008.31 1008.44 1008.55 1008.70 1009.00 1009.17 1009.28 1009.21 1009.21 1009.14 1009.00 1008.92 1008.86 1008.86 1008.81 1008.64 1008.52 1008.47 1008.17 1008.27
1006.58 1006.31 1006.68 1006.91 1006.71 1006.47 1007.19 1006.69 1006.35 1006.12 1006.18 1006.31 1006.20 1006.45 1006.53 1006.51 1006.63 1006.67 1007.13 1007.47 1008.06 1008.68 1008.84 1008.91 1009.02 1009.06 1009.12 1009.20 1009.39 1009.51 1009.16 1009.13 1009.04 1009.03 1008.79 1008.58 1008.43 1008.37 1008.40 1008.41 1008.44 1008.26 1008.07 1007.89
Wind_Speed
3 4 8 13 7 6 5 3 5 3 6 5 7 4 8 9 12 13 12 13 13 13 10 11 14 12 11 10 11 9 9 8 7 4 4 3 3 1 0 2 3 2 1 3
7 5 10 7 10 4 2 2 8 2 6 5 6 9 6 15 16 18 16 14 14 11 6 9 13 12 14 14 12 9 11 9 7 3 3 3 3 2 1 2 2 4 2 3
7 7 5 4 4 5 2 6 7 5 1 3 3 8 2 5 5 11 14 15 13 13 9 10 14 14 13 13 13 14 12 11 7 7 3 3 3 3 1 2 3 3 3 4
5 4 6 4 6 8 6 10 10 9 2 3 3 5 7 6 8 9 14 14 13 11 8 11 14 14 15 16 14 13 11 12 9 7 5 5 5 4 3 3 1 1 2 5
9 7 5 4 11 6 13 10 15 11 5 3 2 4 9 4 7 9 14 11 12 15 14 14 16 17 16 13 15 14 12 11 9 10 9 6 4 3 2 1 2 1 3 4
6 1 7 11 8 12 1 7 9 5 4 2 6 6 9 5 12 7 7 12 10 13 15 15 14 13 12 7 9 10 12 11 10 9 8 9 8 6 3 3 3 2 2 3
5 4 3 3 1 4 7 8 4 4 3 8 3 5 12 7 8 9 12 13 10 13 15 14 15 13 12 13 11 8 9 10 10 11 9 8 8 8 8 7 5 5 4 3
6 6 6 4 8 9 7 10 9 7 5 6 2 7 9 7 6 8 7 5 8 10 15 17 17 15 15 16 12 12 12 9 10 11 11 7 7 6 5 6 5 5 5 4
6 6 3 4 5 9 4 3 5 9 3 3 4 8 6 8 4 6 9 6 8 9 16 17 16 15 15 16 17 17 13 9 10 12 9 7 7 7 8 8 6 4 4 4
5 1 4 3 3 3 6 8 4 5 4 2 6 4 5 6 6 3 6 7 5 6 14 14 15 15 15 16 16 12 10 14 12 12 10 8 9 9 7 6 7 7 6 6
6 5 7 4 2 10 2 3 7 7 5 7 3 7 5 6 3 8 6 5 7 10 6 7 9 13 9 8 14 14 11 10 7 10 10 9 9 9 8 8 8 8 6 7
7 6 4 13 4 3 5 6 7 8 4 1 4 6 1 4 6 5 11 9 3 5 8 3 4 7 8 11 12 12 9 9 12 10 9 11 8 8 10 11 9 8 9 7
9 1 2 12 7 3 4 5 5 6 5 6 6 7 2 7 4 8 16 6 1 6 7 5 6 7 8 7 9 13 15 16 14 12 12 10 9 9 10 10 8 8 8 8
11 4 9 9 9 2 2 5 5 6 5 6 6 5 5 4 9 10 6 7 8 7 7 6 4 4 6 7 7 7 8 9 9 9 10 10 10 12 10 7 7 7 8 8
8 6 5 6 1 1 3 3 8 6 7 8 8 9 9 9 10 6 3 9 9 8 8 5 4 6 5 5 5 3 5 6 7 8 9 12 11 9 6 7 8 7 8 9
1 3 3 6 7 8 7 9 5 3 4 7 7 3 6 2 7 4 6 10 6 7 7 5 5 6 6 7 6 4 5 5 4 5 8 7 6 6 8 7 8 8 7 6
4 7 4 1 3 4 9 7 3 4 3 8 11 8 7 1 4 4 2 4 9 8 7 8 7 7 6 6 5 4 3 2 5 5 4 5 4 5 6 6 6 7 7 7
6 5 2 3 2 5 9 1 5 9 7 5 2 4 5 3 2 5 1 4 6 7 6 7 6 6 4 3 4 4 4 3 2 1 1 4 5 5 6 6 8 8 8 11
3 6 5 5 3 1 3 5 3 5 4 5 6 6 5 2 2 5 4 3 2 3 4 4 6 4 5 5 4 4 3 3 2 2 2 3 3 5 6 6 9 7 6 8
8 8 7 3 6 4 7 3 1 3 4 4 9 7 9 6 4 6 7 6 4 4 5 7 7 5 6 5 6 6 3 2 3 5 6 4 4 5 6 7 7 5 5 7
5 4 5 3 4 5 6 2 2 4 8 2 4 9 8 6 6 4 6 4 5 5 8 6 6 7 6 5 7 6 4 4 3 2 2 4 5 6 5 4 3 5 6 5
4 6 2 3 4 3 0 3 6 7 0 5 5 5 8 5 6 5 6 7 8 7 6 7 7 6 7 6 5 5 3 4 5 2 4 5 5 4 4 6 6 5 5 6
2 4 6 4 5 4 5 3 1 4 6 5 8 6 7 6 6 4 3 6 8 9 8 6 8 8 5 6 6 5 4 3 2 2 5 6 6 5 4 4 5 4 4 5
2 3 5 5 8 5 4 4 3 2 2 4 6 6 7 6 2 6 5 6 6 7 6 5 6 7 6 4 4 3 2 3 4 5 6 5 6 5 4 3 3 3 7 6
3 2 4 3 3 8 10 6 3 6 7 8 7 5 3 7 6 5 4 5 4 3 3 4 6 6 7 3 2 3 5 3 5 6 7 5 5 5 5 4 4 4 5 5
1 6 5 5 3 7 3 2 1 7 6 6 9 8 6 5 7 5 4 2 4 1 3 2 2 3 4 2 4 6 4 3 5 7 5 5 4 4 4 4 4 6 9 9
Wind_Direction
32 109 167 189 185 204 138 211 273 163 195 127 217 258 226 180 186 199 206 211 207 210 213 177 177 166 162 166 171 170 164 173 156 179 159 154 175 221 171 223 256 92 186 236
24 208 230 132 165 180 219 278 280 259 176 157 192 252 213 191 197 194 201 211 212 214 167 179 180 163 172 172 180 176 187 175 181 187 161 134 146 179 176 252 255 207 207 193
157 229 197 147 152 142 213 193 274 206 132 334 61 329 152 219 193 192 209 211 210 211 184 177 183 179 170 176 183 189 187 182 186 182 118 91 95 82 109 155 194 224 176 198
210 235 178 173 232 137 248 186 228 237 162 210 98 275 286 235 195 191 199 197 198 198 187 175 183 184 181 192 187 190 185 185 187 171 172 157 165 172 192 191 190 115 187 187
242 171 157 179 226 139 235 162 205 233 86 27 16 66 269 359 259 206 224 211 197 192 184 177 185 188 194 183 191 188 185 185 188 184 187 175 178 173 116 125 175 168 212 219
237 192 152 212 226 176 89 62 36 60 99 0 196 152 282 199 219 234 208 218 185 185 190 187 188 183 188 183 188 190 180 191 185 185 190 183 186 169 148 168 196 207 187 187
325 241 258 163 119 31 80 75 17 7 6 223 83 117 244 261 237 213 212 216 189 179 184 188 174 182 182 188 183 168 191 190 192 189 192 195 192 176 180 185 191 178 179 193
158 320 181 180 184 190 181 156 150 184 180 245 137 236 258 279 233 227 234 240 155 172 186 194 185 181 187 190 196 183 183 197 192 193 200 195 189 190 181 185 190 196 192 180
137 268 287 216 181 139 202 189 183 104 11 76 245 298 325 346 10 342 253 217 184 186 185 188 187 181 182 187 195 193 183 187 194 206 195 193 182 190 195 191 192 193 183 173
190 264 221 273 152 51 157 162 73 17 129 230 286 277 238 315 341 16 32 5 344 251 197 179 187 185 187 192 196 191 187 195 193 204 204 199 199 196 199 180 192 199 199 181
131 108 281 25 209 191 119 124 46 109 119 162 215 264 201 266 304 321 14 28 79 90 100 166 197 203 174 176 187 187 187 192 192 197 204 199 198 200 195 199 199 197 185 187
200 141 218 235 214 224 133 152 130 120 230 169 155 272 126 240 164 84 310 249 100 98 118 144 173 177 169 175 183 185 187 191 208 197 207 204 195 193 202 212 204 181 193 188
179 234 19 331 352 346 152 152 117 113 85 183 139 255 49 5 125 228 227 95 34 54 62 117 165 181 177 169 174 184 191 208 218 208 205 204 205 204 211 215 207 191 189 192
102 125 155 187 214 196 204 140 160 125 120 171 218 192 201 193 211 219 193 100 74 57 42 53 96 163 171 164 166 178 185 188 186 187 190 199 205 211 213 196 194 197 193 187
123 154 168 231 159 232 70 10 172 178 176 150 213 196 192 192 209 216 111 87 77 48 50 67 87 93 96 134 173 189 193 186 180 185 192 210 213 211 193 186 194 194 191 197
172 167 130 31 138 112 72 28 47 113 133 74 101 196 213 267 311 288 125 125 116 121 129 117 101 97 99 106 109 145 210 219 190 201 214 220 209 193 196 197 201 199 196 190
95 124 96 207 284 355 22 340 340 88 332 143 154 223 126 250 306 324 283 144 142 146 143 156 162 151 153 136 121 113 105 103 195 209 225 228 223 208 200 196 193 197 198 189
121 97 99 177 25 62 243 3 13 106 102 37 1 102 102 352 319 295 208 202 163 140 165 155 126 94 94 98 86 87 62 48 54 59 217 236 219 219 209 200 203 208 192 200
68 121 83 134 90 359 335 323 143 139 177 188 165 140 164 338 317 291 213 235 185 167 178 157 131 129 131 125 103 99 62 11 7 319 268 254 220 213 202 207 214 210 204 201
65 72 106 93 102 169 237 267 311 280 15 143 124 139 154 193 154 235 202 191 212 246 166 137 141 132 129 135 133 137 171 225 290 309 298 258 247 249 225 214 223 194 203 215
39 21 99 90 116 297 262 289 6 81 229 172 174 154 159 184 212 249 151 188 180 179 142 120 131 150 175 171 149 140 142 192 225 323 298 271 256 253 242 253 227 221 216 209
130 117 139 97 90 139 321 321 164 202 99 148 115 181 171 215 289 328 192 171 141 160 145 158 149 172 195 173 147 145 153 217 210 231 277 268 257 238 237 233 252 229 202 206
53 170 151 149 202 265 274 258 223 146 154 182 168 164 173 198 235 297 272 162 170 179 174 172 167 164 175 168 167 157 234 195 220 272 276 267 257 243 230 233 258 255 219 214
13 166 89 83 340 345 11 12 76 69 328 79 95 105 160 217 219 257 243 200 200 186 181 162 151 165 179 186 177 196 231 256 282 298 282 265 241 260 254 215 211 226 245 234
196 83 120 85 235 73 29 18 30 51 50 57 59 54 105 161 207 207 172 190 215 199 146 169 181 181 205 202 257 266 269 269 281 287 281 269 225 222 234 223 219 215 230 231
197 158 137 189 216 127 151 18 44 80 63 61 78 47 32 88 88 102 97 115 122 144 21 26 339 340 314 314 282 276 288 303 294 289 275 255 238 221 225 227 248 261 257 260